IRIDIUM 33 DEB

Satellite information

Favourite Embed

Satellite Type and Status

DEBRISIN ORBIT

Key statistics

Satellite IRIDIUM 33 DEB at a glance.

Uptime

10098

Days in orbit

Revolutions

≈ 14.5

Per day

Orbit

LEO

Low Earth Orbit

Inclination

86.0

Latest

Satellite identification and parameters

Extended collection of information and parameters for IRIDIUM 33 DEB.

Object identification

Identified? True

Debris? True

Object name: IRIDIUM 33 DEB

International designator: 1997-051AAJ

Object number (NORAD): 39777

Object ID (CCSDS): 39777

Country: UNITED STATES OF AMERICA (US)

Current information (Y/N): Y

RCS size: SMALL

Orbital parameters

Period: 99.178 minutes

Inclination: 85.9578 deg

SMA: 7097.492 km

Apoapsis: 764.894 km

Periapsis: 673.82 km

RAAN: 282.068 deg

Eccentricy: 0.0064159

Argument of periapsis: 210.0019 deg

Mean anomaly: 149.7504 deg

Mean motion: 14.51929078 rev/day

Mean motion (dot): 0.00018055 rev/day2

B* drag term: 0.0043466 1/REarth

Two-line elements (TLE)

Creation date: May 7, 2025, 7:06 a.m.

Reference frame: TEME

Reference center: EARTH

Epoch: May 5, 2025, 10 a.m. UTC

TLE line 0: 0 IRIDIUM 33 DEB

TLE line 1: 1 39777U 97051AAJ 25125.41711727 .00018055 00000-0 43466-2 0 9994

TLE line 2: 2 39777 85.9578 282.0680 0064159 210.0019 149.7504 14.51929078596827

Live tracking on map

Real-time ground track for satellite IRIDIUM 33 DEB.

In-orbit conjunctions

A list of the most updated potential collisions computed for object IRIDIUM 33 DEB.

Target Orbit TCA Probability of collision Miss distance Type
FENGYUN 1C DEB SSO 2024-11-17 02:24:31 0.0002738604 858.0 (m) DEBRIS
FENGYUN 1C DEB SSO 2024-11-14 06:53:50 0.0001236459 754.0 (m) DEBRIS
JAWSAT SSO 2024-11-03 06:06:51 0.0001077386 438.0 (m) PAYLOAD

Associated space launch

Iridium provides global mobile telecommunications services using a constellation of 66 low earth orbit satellites in a 86.4° inclined orbit. Although 77 satellites were originally envisioned for the system and spawned the name based on the 77th element in the periodic table, the system has been scaled back. Motorola's Satellite Communications Group designed and manufactured the Iridium satellites with Lockheed Martin providing the LM-700A spacecraft buses.

IRIDIUM 33 DEB was lifted into orbit during the mission ‘Proton-K/17S40 | Iridium 27 to 33’, on board a Proton-K/17S40 space rocket.

The launch took place on Sept. 14, 1997, 1:36 a.m. from 81/23 (81L).

For more information about the launch, click the button.

Launch to space Proton-K/17S40 | Iridium 27 to 33
Proton-K/17S40 | Iridium 27 to 33

Agency: N/A

Status: Launch Successful

Launch date: Sept. 14, 1997, 1:36 a.m. UTC

Rocket: Proton-K/17S40

Launch pad: 81/23 (81L)

Location: Baikonur Cosmodrome, Republic of Kazakhstan

...

Latest news about this satellite

There are no fresh news available about this satellite. Check back as we update our databases every day.


Newsletter sign-up

Weekly statistics, charts and insights to help you stay on top of the space industry.